KJ7AZ-3 Weather Reports


time (UTC)temp
F
wind
direction
speed
knots
gust
knots
rain 1hr
in
rain 24hr
in
rain mn
in
humidity
%
barometer
mb
20260509003257 82 184 1.7 1.7 0.00 0.00 0.00
20260509001757 81 153 1.7 0.0 0.00 0.00 0.00
20260508234756 85 194 2.6 6.1 0.00 0.00 0.00
20260508233256 84 248 2.6 4.3 0.00 0.00 0.00
20260508231756 87 100 0.0 0.0 0.00 0.00 0.00
20260508224755 86 139 0.9 5.2 0.00 0.00 0.00
20260508223254 85 113 0.9 1.7 0.00 0.00 0.00
20260508220254 82 257 0.9 3.5 0.00 0.00 0.00
20260508214754 84 173 7.0 4.3 0.00 0.00 0.00
20260508213253 84 207 2.6 5.2 0.00 0.00 0.00
20260508211753 84 108 1.7 0.0 0.00 0.00 0.00
20260508210253 84 193 0.0 0.0 0.00 0.00 0.00
20260508204753 82 228 1.7 1.7 0.00 0.00 0.00
20260508203253 83 94 0.0 2.6 0.00 0.00 0.00
20260508201753 83 198 0.0 1.7 0.00 0.00 0.00
20260508200252 82 224 4.3 6.1 0.00 0.00 0.00
20260508193253 81 285 4.3 3.5 0.00 0.00 0.00
20260508191753 80 210 2.6 7.0 0.00 0.00 0.00
20260508184754 79 212 7.0 8.7 0.00 0.00 0.00
20260508183254 78 183 3.5 3.5 0.00 0.00 0.00
20260508181754 78 114 5.2 2.6 0.00 0.00 0.00
20260508180254 77 195 5.2 6.1 0.00 0.00 0.00
20260508174755 77 127 2.6 8.7 0.00 0.00 0.00
20260508173256 77 179 3.5 6.1 0.00 0.00 0.00
20260508171756 77 134 2.6 4.3 0.00 0.00 0.00
20260508170257 76 124 3.5 0.9 0.00 0.00 0.00
20260508164758 75 173 3.5 2.6 0.00 0.00 0.00
20260508163259 76 174 5.2 3.5 0.00 0.00 0.00
20260508161803 74 170 1.7 5.2 0.00 0.00 0.00
20260508160301 76 124 0.0 0.9 0.00 0.00 0.00
20260508150307 68 262 0.9 0.0 0.00 0.00 0.00
20260508144808 67 285 0.9 0.0 0.00 0.00 0.00
20260508143309 67 49 0.0 0.0 0.00 0.00 0.00
20260508141810 67 49 0.0 0.0 0.00 0.00 0.00
20260508140311 68 49 0.0 0.0 0.00 0.00 0.00
20260508134812 63 49 0.0 0.0 0.00 0.00 0.00
20260508133314 59 49 0.0 0.0 0.00 0.00 0.00
20260508131815 55 49 0.0 0.0 0.00 0.00 0.00
20260508130317 54 96 0.0 0.9 0.00 0.00 0.00
20260508121822 44 124 0.0 0.0 0.00 0.00 0.00
20260508120323 45 124 0.0 0.0 0.00 0.00 0.00
20260508114825 46 111 0.0 0.0 0.00 0.00 0.00
20260508113327 44 172 0.0 0.0 0.00 0.00 0.00
20260508111828 41 172 0.0 0.0 0.00 0.00 0.00
20260508110330 41 172 0.0 0.0 0.00 0.00 0.00
20260508104831 41 172 0.0 0.0 0.00 0.00 0.00
20260508103333 46 172 0.0 0.0 0.00 0.00 0.00
20260508101835 44 172 0.0 0.0 0.00 0.00 0.00
20260508100336 41 172 0.0 0.0 0.00 0.00 0.00
20260508093340 42 172 0.0 0.0 0.00 0.00 0.00
20260508091841 44 172 0.0 0.0 0.00 0.00 0.00
20260508090343 41 172 0.0 0.0 0.00 0.00 0.00
20260508084844 41 172 0.0 0.0 0.00 0.00 0.00
20260508083346 44 172 0.0 0.0 0.00 0.00 0.00
20260508081848 45 172 0.0 0.0 0.00 0.00 0.00
20260508080349 45 172 0.0 0.0 0.00 0.00 0.00
20260508074853 46 172 0.0 0.0 0.00 0.00 0.00
20260508073352 44 172 0.0 0.0 0.00 0.00 0.00
20260508071853 44 172 0.0 0.0 0.00 0.00 0.00
20260508070355 46 172 0.0 0.0 0.00 0.00 0.00
20260508063358 51 172 0.0 0.0 0.00 0.00 0.00
20260508061859 51 172 0.0 0.0 0.00 0.00 0.00
20260508060400 48 172 0.0 0.0 0.00 0.00 0.00
20260508054902 50 172 0.0 0.0 0.00 0.00 0.00
20260508053403 52 172 0.0 0.0 0.00 0.00 0.00
20260508051904 52 172 0.0 0.0 0.00 0.00 0.00
20260508050405 52 172 0.0 0.0 0.00 0.00 0.00
20260508044906 52 194 0.0 0.0 0.00 0.00 0.00
20260508043408 50 194 0.0 0.0 0.00 0.00 0.00
20260508041909 51 194 0.0 0.0 0.00 0.00 0.00
20260508040410 55 194 0.0 0.0 0.00 0.00 0.00
20260508034911 54 194 0.0 0.0 0.00 0.00 0.00
20260508033412 52 194 0.0 0.0 0.00 0.00 0.00
20260508031913 54 194 0.0 0.0 0.00 0.00 0.00
20260508030414 55 194 0.0 0.0 0.00 0.00 0.00
20260508024915 56 194 0.0 0.0 0.00 0.00 0.00
20260508023416 58 194 0.0 0.0 0.00 0.00 0.00
20260508020417 59 194 0.0 0.0 0.00 0.00 0.00
20260508014918 62 194 0.0 0.0 0.00 0.00 0.00
20260508013418 67 194 0.0 0.0 0.00 0.00 0.00
20260508011919 71 207 0.0 1.7 0.00 0.00 0.00
20260508010419 71 245 0.9 2.6 0.00 0.00 0.00
20260508004919 72 238 3.5 5.2 0.00 0.00 0.00